Change the Weather History Date:

Monday, December 26, 2011

  Actual Average Record
Temperature  
Mean Temperature 38 °F 29 °F  
Max Temperature 44 °F 39 °F 61 °F (1982)
Min Temperature 33 °F 20 °F -1 °F (1980)
Degree Days  
Heating Degree Days 26    
Month to date heating degree days  
Since 1 July heating degree days  
Cooling Degree Days 0    
Month to date cooling degree days  
Year to date cooling degree days  
Moisture  
Dew Point 24 °F    
Average Humidity 60    
Maximum Humidity 75    
Minimum Humidity 43    
Precipitation  
Precipitation 0.00 in 0.10 in 0.38 in (2012)
Month to date precipitation 2.72  
Year to date precipitation 39.54  
Snow  
Snow 0.00 in - - ()
Month to date snowfall  
Since 1 July snowfall  
Snow Depth -    
Sea Level Pressure  
Sea Level Pressure 30.26 in    
Wind  
Wind Speed 6 mph (NW)    
Max Wind Speed 15 mph    
Max Gust Speed 26 mph    
Visibility 10 miles    
Events      
T = Trace of Precipitation, MM = Missing Value Source: NWS Daily Summary

Daily Weather History Graph

Daily Weather History Graph

Search for Another Location

Airport or City:

Trip Planner

Search our weather history database for the weather conditions in past years. The results will help you decide how hot, cold, wet, or windy it might be!

Date:

Astronomy

Dec. 26, 2011 Rise Set
Actual Time 7:35 AM EST 5:08 PM EST
Civil Twilight 7:06 AM EST 5:38 PM EST
Nautical Twilight 6:33 AM EST 6:11 PM EST
Astronomical Twilight 6:01 AM EST 6:43 PM EST
Moon 8:56 AM EST (12/26) 7:32 PM EST (12/26)
Length of Visible Light 10h 31m
Length of Day
9h 33m
Waxing Crescent, 5% of the Moon is Illuminated
Dec 26
Waxing Crescent
Jan 1
First Quarter
Jan 9
Full
Jan 16
Last Quarter
Jan 23
New

Hourly Weather History & Observations

Time (EST) Temp. Windchill Dew Point Humidity Pressure Visibility Wind Dir Wind Speed Gust Speed Precip Events Conditions
12:15 AM 39.2 °F 31.6 °F 24.8 °F 56% 30.17 in 10.0 mi NW 12.7 mph 21.9 mph N/A   Scattered Clouds
12:35 AM 39.2 °F 34.2 °F 26.6 °F 61% 30.18 in 10.0 mi NW 6.9 mph - N/A   Mostly Cloudy
12:55 AM 37.4 °F 32.8 °F 26.6 °F 65% 30.19 in 10.0 mi WNW 5.8 mph 26.5 mph N/A   Mostly Cloudy
1:15 AM 37.4 °F 31.4 °F 26.6 °F 65% 30.18 in 10.0 mi WNW 8.1 mph - N/A   Mostly Cloudy
1:35 AM 37.4 °F 32.1 °F 24.8 °F 60% 30.19 in 10.0 mi WNW 6.9 mph 19.6 mph N/A   Mostly Cloudy
1:55 AM 35.6 °F 29.9 °F 24.8 °F 65% 30.20 in 10.0 mi NW 6.9 mph - N/A   Scattered Clouds
2:15 AM 35.6 °F 29.2 °F 24.8 °F 65% 30.22 in 10.0 mi NW 8.1 mph - N/A   Mostly Cloudy
2:35 AM 35.6 °F 27.1 °F 26.6 °F 70% 30.22 in 10.0 mi NNW 12.7 mph - N/A   Overcast
2:55 AM 35.6 °F 26.2 °F 24.8 °F 65% 30.23 in 10.0 mi NNW 15.0 mph 19.6 mph N/A   Mostly Cloudy
3:35 AM 35.6 °F 28.0 °F 23.0 °F 60% 30.23 in 10.0 mi NNW 10.4 mph 19.6 mph N/A   Scattered Clouds
3:55 AM 33.8 °F 30.8 °F 23.0 °F 65% 30.23 in 10.0 mi North 3.5 mph - N/A   Scattered Clouds
4:15 AM 33.8 °F - 23.0 °F 65% 30.22 in 10.0 mi Calm Calm - N/A   Mostly Cloudy
4:35 AM 33.8 °F 27.7 °F 24.8 °F 70% 30.22 in 10.0 mi NW 6.9 mph - N/A   Overcast
4:55 AM 33.8 °F 28.6 °F 24.8 °F 70% 30.22 in 10.0 mi WNW 5.8 mph - N/A   Mostly Cloudy
5:15 AM 33.8 °F 27.0 °F 24.8 °F 70% 30.22 in 10.0 mi NW 8.1 mph - N/A   Scattered Clouds
5:35 AM 33.8 °F 27.0 °F 23.0 °F 65% 30.22 in 10.0 mi NNW 8.1 mph - N/A   Clear
5:55 AM 33.8 °F 27.7 °F 23.0 °F 65% 30.24 in 10.0 mi NW 6.9 mph - N/A   Clear
6:15 AM 33.8 °F 29.6 °F 23.0 °F 65% 30.26 in 10.0 mi NW 4.6 mph - N/A   Mostly Cloudy
6:35 AM 33.8 °F 25.8 °F 23.0 °F 65% 30.26 in 10.0 mi NW 10.4 mph - N/A   Mostly Cloudy
6:55 AM 33.8 °F 29.6 °F 23.0 °F 65% 30.28 in 10.0 mi WNW 4.6 mph - N/A   Mostly Cloudy
7:15 AM 33.8 °F 27.7 °F 23.0 °F 65% 30.29 in 10.0 mi NW 6.9 mph - N/A   Overcast
7:35 AM 33.8 °F 29.6 °F 23.0 °F 65% 30.30 in 10.0 mi NNW 4.6 mph - N/A   Overcast
8:15 AM 33.8 °F 28.6 °F 23.0 °F 65% 30.32 in 10.0 mi NNW 5.8 mph - N/A   Overcast
8:35 AM 33.8 °F 28.6 °F 23.0 °F 65% 30.33 in 10.0 mi North 5.8 mph - N/A   Overcast
8:55 AM 33.8 °F 27.7 °F 23.0 °F 65% 30.34 in 10.0 mi North 6.9 mph - N/A   Mostly Cloudy
9:15 AM 33.8 °F 29.6 °F 23.0 °F 65% 30.35 in 10.0 mi North 4.6 mph - N/A   Scattered Clouds
9:35 AM 35.6 °F 29.9 °F 23.0 °F 60% 30.35 in 10.0 mi NNW 6.9 mph - N/A   Mostly Cloudy
9:55 AM 35.6 °F 30.7 °F 23.0 °F 60% 30.35 in 10.0 mi North 5.8 mph - N/A   Mostly Cloudy
10:15 AM 35.6 °F - 23.0 °F 60% 30.36 in 10.0 mi Calm Calm - N/A   Scattered Clouds
10:35 AM 35.6 °F - 23.0 °F 60% 30.36 in 10.0 mi Calm Calm - N/A   Scattered Clouds
10:55 AM 37.4 °F 33.8 °F 23.0 °F 56% 30.36 in 10.0 mi South 4.6 mph - N/A   Scattered Clouds
11:15 AM 37.4 °F 34.9 °F 23.0 °F 56% 30.36 in 10.0 mi West 3.5 mph - N/A   Clear
11:35 AM 39.2 °F 35.9 °F 24.8 °F 56% 30.35 in 10.0 mi WSW 4.6 mph - N/A   Clear
11:55 AM 39.2 °F 35.0 °F 24.8 °F 56% 30.34 in 10.0 mi SW 5.8 mph - N/A   Clear
12:15 PM 39.2 °F - 24.8 °F 56% 30.33 in 10.0 mi Calm Calm - N/A   Clear
12:35 PM 39.2 °F - 23.0 °F 52% 30.32 in 10.0 mi Calm Calm - N/A   Clear
12:55 PM 41.0 °F - 24.8 °F 53% 30.30 in 10.0 mi Calm Calm - N/A   Clear
1:15 PM 41.0 °F - 24.8 °F 53% 30.29 in 10.0 mi Calm Calm - N/A   Clear
1:35 PM 41.0 °F - 24.8 °F 53% 30.28 in 10.0 mi Calm Calm - N/A   Clear
1:55 PM 42.8 °F - 24.8 °F 49% 30.27 in 10.0 mi Calm Calm - N/A   Clear
2:15 PM 42.8 °F - 24.8 °F 49% 30.26 in 10.0 mi Calm Calm - N/A   Clear
2:35 PM 42.8 °F - 26.6 °F 53% 30.26 in 10.0 mi Calm Calm - N/A   Clear
2:55 PM 44.6 °F 43.1 °F 24.8 °F 46% 30.26 in 10.0 mi WSW 3.5 mph - N/A   Clear
3:15 PM 44.6 °F - 24.8 °F 46% 30.26 in 10.0 mi Calm Calm - N/A   Clear
3:35 PM 44.6 °F 43.1 °F 24.8 °F 46% 30.26 in 10.0 mi South 3.5 mph - N/A   Clear
3:55 PM 44.6 °F - 23.0 °F 43% 30.26 in 10.0 mi Calm Calm - N/A   Clear
4:15 PM 42.8 °F - 24.8 °F 49% 30.26 in 10.0 mi Calm Calm - N/A   Clear
4:35 PM 42.8 °F - 23.0 °F 46% 30.25 in 10.0 mi Calm Calm - N/A   Clear
4:55 PM 41.0 °F - 23.0 °F 49% 30.24 in 10.0 mi Calm Calm - N/A   Clear
5:15 PM 41.0 °F 39.0 °F 24.8 °F 53% 30.22 in 10.0 mi North 3.5 mph - N/A   Clear
5:35 PM 39.2 °F - 26.6 °F 61% 30.23 in 10.0 mi Calm Calm - N/A   Clear
5:55 PM 35.6 °F - 26.6 °F 70% 30.23 in 10.0 mi Calm Calm - N/A   Clear
6:15 PM 35.6 °F - 26.6 °F 70% 30.23 in 10.0 mi Calm Calm - N/A   Clear
6:35 PM 35.6 °F - 26.6 °F 70% 30.22 in 10.0 mi Calm Calm - N/A   Clear
6:55 PM 35.6 °F 31.7 °F 26.6 °F 70% 30.22 in 10.0 mi North 4.6 mph - N/A   Clear
7:15 PM 33.8 °F - 26.6 °F 75% 30.22 in 10.0 mi Calm Calm - N/A   Clear
7:35 PM 35.6 °F - 28.4 °F 75% 30.22 in 10.0 mi Calm Calm - N/A   Clear
7:55 PM 35.6 °F 30.7 °F 28.4 °F 75% 30.22 in 10.0 mi NNE 5.8 mph - N/A   Clear
8:15 PM 35.6 °F 31.7 °F 28.4 °F 75% 30.22 in 10.0 mi NNE 4.6 mph - N/A   Clear
8:35 PM 35.6 °F 32.8 °F 28.4 °F 75% 30.22 in 10.0 mi NNE 3.5 mph - N/A   Clear
8:55 PM 35.6 °F 29.9 °F 28.4 °F 75% 30.20 in 10.0 mi NNE 6.9 mph - N/A   Clear
9:15 PM 35.6 °F 32.8 °F 28.4 °F 75% 30.20 in 10.0 mi NE 3.5 mph - N/A   Clear
9:35 PM 35.6 °F 32.8 °F 28.4 °F 75% 30.19 in 10.0 mi NE 3.5 mph - N/A   Clear
9:55 PM 35.6 °F 29.2 °F 28.4 °F 75% 30.17 in 10.0 mi NNE 8.1 mph - N/A   Clear
10:15 PM 35.6 °F 30.7 °F 28.4 °F 75% 30.17 in 10.0 mi North 5.8 mph - N/A   Clear
10:35 PM 35.6 °F 29.2 °F 28.4 °F 75% 30.17 in 10.0 mi NNE 8.1 mph - N/A   Clear
10:55 PM 35.6 °F 28.6 °F 28.4 °F 75% 30.15 in 10.0 mi NNE 9.2 mph - N/A   Clear
11:15 PM 35.6 °F 29.2 °F 26.6 °F 70% 30.15 in 10.0 mi NNE 8.1 mph - N/A   Clear
11:35 PM 33.8 °F 30.8 °F 28.4 °F 81% 30.13 in 10.0 mi NE 3.5 mph - N/A   Clear
11:55 PM 35.6 °F 29.9 °F 26.6 °F 70% 30.12 in 10.0 mi NNE 6.9 mph - N/A   Clear